sat.trackr.live / text

‹ back to catalog

STARLINK-5472

NORAD 54767 · 2022-175K

PAYLOAD ACTIVE UNKNOWN

§ Identity

Operator
Country
US
Launch date
2022-12-17
Launch site
AFETR
Launch vehicle
Mass (kg)
RCS (m²)

Purposes: comms

External: N2YO · Heavens-Above · Gunter

§ Orbital elements

Epoch: 2026-05-25T03:46:13.490112Z

Period
95.44 min
Inclination
53.2129°
Eccentricity
0.0001362
Mean motion
15.08844958 rev/d
Perigee alt
538.8 km
Apogee alt
540.7 km
Semi-major
6,917.9 km
B*
-1.6524e-6
RAAN
60.7984°
Arg perigee
78.3482°
Mean anomaly
281.7662°
Rev number
19,146

§ Raw data

STARLINK-54721 54767U 22175K   26145.15710058 -.00000314  00000+0 -16524-5 0  99932 54767  53.2129  60.7984 0001362  78.3482 281.7662 15.08844958191466

JSON: /api/v1/satellites/54767 · /tle

For live sub-satellite position, see the globe view (requires WebGL).

§ Visibility from observer

Set your observer location to see the next 7 days of passes ≥ 10°. The values pass through the URL so the page stays shareable.

No JS? Fill the form by hand. The geolocation button needs JavaScript.